Simultaneous Nadir Overpasses (SNOs) Predictions

Prediction of SNOs between NOAA-19 and METOP-C Satellite Orbit:

Table of predicted SNOs for the next 14.0 days since TLE Epoch: 4/26/2025
Index Date (NOAA-19) Time (NOAA-19) Lat,Lon (NOAA-19) SZA (NOAA-19 ) Date (METOP-C) Time (METOP-C) Lat,Lon (METOP-C) SZA (METOP-C ) Distance(km) Time Diff (sec)
1 05/06/2025 04:55:11 -80.32, 5.11 108.09 05/06/2025 04:56:23 -80.32, 5.10 108.04 0.35 72
2 05/06/2025 05:46:10 80.30, 172.62 71.94 05/06/2025 05:47:03 80.30, 172.74 72.00 2.27 53
3 05/06/2025 06:37:06 -80.29, -19.87 108.03 05/06/2025 06:37:43 -80.28, -19.72 107.98 2.99 37
4 05/06/2025 07:28:03 80.22, 148.28 72.11 05/06/2025 07:28:22 80.23, 148.23 72.11 0.96 19
5 05/06/2025 08:18:58 -80.18, -43.91 107.82 05/06/2025 08:19:01 -80.18, -43.92 107.82 0.27 3
6 05/06/2025 09:09:57 80.16, 123.60 72.22 05/06/2025 09:09:41 80.15, 123.72 72.23 2.44 16
7 05/06/2025 10:00:53 -80.15, -68.90 107.76 05/06/2025 10:00:21 -80.14, -68.75 107.76 3.15 32
8 05/06/2025 10:51:50 80.08, 99.23 72.38 05/06/2025 10:51:00 80.08, 99.19 72.34 0.77 50



Historial Predications of SNOs between NOAA-19 and METOP-C
